Flag for Germany Weather past 2 weeks in Wiehl, North Rhine-Westphalia, Germany

Now
77 °F

Sunny.


Feels Like: 79 °F
Forecast: 61 / 75 °F
Wind: 7 mph from Southeast

Location: Koeln / Bonn

Current Time: Aug 2, 2014 at 11:35:08 AM

Latest Report: Aug 2, 2014 at 10:50 AM


Visibility: 10 mi

Pressure: 29.74 "Hg

Humidity: 47%

Dew point: 55 °F

Location of WiehlLocation

Historic Weather in Wiehl — Graph

°F

Wiehl temperature yesterday

Maximum temperature yesterday: 82 °F (at 4:50 PM)
Minimum temperature yesterday: 57 °F (at 5:50 AM)
Average temperature yesterday: 71 °F

Past Weeks' High & Low Weather Summary

 TemperatureHumidityPressure
High91 °F (Jul 19, 2:50 PM)100% (Jul 21, 7:20 AM)30.07 "Hg (Jul 21, 7:20 AM)
Low54 °F (Jul 25, 4:20 AM)26% (Jul 19, 2:50 PM)29.74 "Hg (Aug 2, 5:20 AM)
Average70 °F73%29.91 "Hg
* Reported Jul 18 10:20 AM — Aug 2 10:20 AM, Wiehl, Weather by CustomWeather, © 2014

Note: Actual official high and low records may vary slightly from our data, if they occured in-between our weather recording intervals... More about our weather records

Advertising

Wiehl weather history for previous 24 hours

 ConditionsComfort  
Time TempWeatherWind HumidityBarometerVisibility
10:20 AM
Aug 2
75 °FSunny.7 mph54%29.74 "Hg10 mi
9:50 AM73 °FSunny.9 mph57%29.74 "Hg10 mi
9:20 AM72 °FSunny.5 mph65%29.77 "Hg10 mi
8:50 AM70 °FSunny.3 mph69%29.77 "Hg10 mi
8:20 AM68 °FSunny.5 mph69%29.74 "Hg10 mi
7:50 AM66 °FSunny.6 mph73%29.74 "Hg10 mi
7:20 AM63 °FSunny.5 mph83%29.74 "Hg10 mi
6:50 AM63 °FClear.5 mph73%29.74 "Hg10 mi
6:20 AM63 °FClear.5 mph77%29.74 "Hg10 mi
5:50 AM64 °FClear.5 mph73%29.74 "Hg10 mi
5:20 AM64 °FClear.5 mph73%29.74 "Hg10 mi
4:50 AM66 °FClear.8 mph68%29.77 "Hg10 mi
4:20 AM66 °FClear.9 mph68%29.77 "Hg10 mi
3:50 AM66 °FClear.9 mph68%29.77 "Hg10 mi
3:20 AM66 °FClear.7 mph68%29.77 "Hg10 mi
2:50 AM66 °FClear.6 mph73%29.77 "Hg10 mi
2:20 AM68 °FClear.6 mph69%29.80 "Hg10 mi
1:50 AM68 °FClear.6 mph69%29.80 "Hg10 mi
1:20 AM70 °FClear.6 mph64%29.80 "Hg10 mi
12:50 AM70 °FClear.6 mph64%29.80 "Hg10 mi
12:20 AM72 °FClear.6 mph65%29.80 "Hg10 mi
11:50 PM
Aug 1
72 °FClear.7 mph65%29.80 "Hg10 mi
11:20 PM73 °FClear.6 mph61%29.80 "Hg10 mi
10:50 PM73 °FClear.6 mph61%29.80 "Hg10 mi
10:20 PM73 °FClear.5 mph61%29.80 "Hg10 mi
9:50 PM75 °FSunny.6 mph57%29.77 "Hg10 mi
9:20 PM75 °FScattered clouds.5 mph61%29.77 "HgN/A
8:50 PM77 °FSunny.6 mph57%29.77 "Hg10 mi
8:20 PM77 °FSunny.5 mph57%29.77 "Hg10 mi
7:50 PM77 °FSunny.3 mph57%29.77 "Hg10 mi
7:20 PM79 °FSunny.7 mph51%29.80 "Hg10 mi
6:50 PM81 °FSunny.6 mph48%29.80 "Hg10 mi
6:20 PM81 °FScattered clouds.9 mph45%29.80 "HgN/A
5:50 PM81 °FSunny.6 mph48%29.80 "Hg10 mi
5:20 PM81 °FSunny.6 mph42%29.80 "Hg10 mi
4:50 PM82 °FSunny.7 mph40%29.80 "Hg10 mi
4:20 PM81 °FSunny.7 mph45%29.80 "Hg10 mi
3:50 PM81 °FPassing clouds.7 mph42%29.83 "HgN/A
3:20 PM81 °FPassing clouds.5 mph39%29.83 "HgN/A
2:50 PM81 °FSunny.6 mph42%29.83 "Hg10 mi
2:20 PM81 °FSunny.8 mph39%29.83 "Hg10 mi
1:50 PM81 °FPassing clouds.7 mph42%29.83 "HgN/A
1:20 PM79 °FSunny.8 mph42%29.86 "Hg10 mi
12:50 PM81 °FSunny.7 mph42%29.86 "Hg10 mi
12:20 PM79 °FScattered clouds.3 mph45%29.86 "HgN/A
11:50 AM77 °FScattered clouds.5 mph47%29.86 "HgN/A
11:20 AM77 °FScattered clouds.5 mph51%29.86 "HgN/A
Weather by CustomWeather, © 2014

See weather overviewHow to use our weather pages